Hourly Data Report for October 27, 2014

All times are specified in Local Standard Time (LST). Add 1 hour to adjust for Daylight Saving Time where and when it is observed.

RANKIN INLET A
NUNAVUT

62°48'38.000" N
92°06'53.000" W
32.30 m
2303405
71083
YRT

Download Data

Hourly Data (October 2014)
Hourly Data Report for October 27, 2014
Temp Definition
°C
Dew Point Temp Definition
°C
Rel Hum Definition
%
Wind Dir Definition
10's deg

Wind Spd Definition
km/h
Visibility Definition
km
Stn Press Definition
kPa
Hmdx Definition


Wind Chill Definition


Weather Definition


TIME
00:00 Legend Double Dagger -5.5 -6.9 90 35 35 19.3 100.66   -14 Blowing Snow
01:00 Legend Double Dagger -6.0 -7.4 90 34 33 19.3 100.75   -15 Blowing Snow
02:00 Legend Double Dagger -6.5 -8.0 89 34 31 19.3 100.82   -15 Blowing Snow
03:00 Legend Double Dagger -6.6 -8.1 89 34 33 19.3 100.85   -15 Blowing Snow
04:00 Legend Double Dagger -6.3 -7.8 89 34 28 19.3 100.88   -14 Blowing Snow
05:00 Legend Double Dagger -6.3 -7.8 89 34 33 16.1 100.86   -15 Blowing Snow
06:00 Legend Double Dagger -6.0 -7.5 89 35 28 16.1 100.87   -14 Blowing Snow
07:00 Legend Double Dagger -5.8 -7.2 90 34 28 19.3 100.90   -14 Blowing Snow
08:00 Legend Double Dagger -5.4 -6.8 90 34 34 24.1 100.92   -14 Blowing Snow
09:00 Legend Double Dagger -4.9 -6.4 89 34 31 24.1 100.96   -13 Blowing Snow
10:00 Legend Double Dagger -4.7 -6.1 90 34 31 24.1 100.99   -13 LegendNANA
11:00 Legend Double Dagger -4.5 -5.9 90 34 26 24.1 101.01   -12 LegendNANA
12:00 Legend Double Dagger -4.1 -5.5 90 35 24 24.1 101.04   -11 Mostly Cloudy
13:00 Legend Double Dagger -3.9 -5.2 91 35 25 24.1 101.08   -11 LegendNANA
14:00 Legend Double Dagger -3.6 -5.3 88 34 22 24.1 101.12   -10 LegendNANA
15:00 Legend Double Dagger -3.8 -5.7 87 34 26 24.1 101.15   -11 Mostly Cloudy
16:00 Legend Double Dagger -4.8 -6.3 89 33 27 24.1 101.18   -12 LegendNANA
17:00 Legend Double Dagger -5.6 -7.4 87 34 31 24.1 101.23   -14 LegendNANA
18:00 Legend Double Dagger -6.4 -8.2 87 33 36 24.1 101.27   -16 Cloudy
19:00 Legend Double Dagger -6.9 -8.7 87 33 33 24.1 101.31   -16 LegendNANA
20:00 Legend Double Dagger -7.2 -9.2 86 33 36 19.3 101.32   -17 LegendNANA
21:00 Legend Double Dagger -8.1 -10.0 86 32 29 24.1 101.34   -17 Cloudy
22:00 Legend Double Dagger -8.1 -10.0 86 32 33 24.1 101.37   -17 LegendNANA
23:00 Legend Double Dagger -8.4 -10.3 86 31 30 24.1 101.38   -17 LegendNANA

Notes on Data Quality.

Legend

  • E = Estimated
  • M = Missing
  • NA = Not Available
  • ‡ = Partner data that is not subject to review by the National Climate Archives
Date modified: